[[{"header":{"parameterUnit":"m.s-1","parameterCategory":1,"la1":30.2991,"la2":30.254,"lo1":-89.0895,"lo2":-89.0444,"dy":0.0017,"dx":0.0017,"nx":28,"ny":28,"refTime":"2026-02-08T09:00:00:Z","depth":0,"parameterNumber":2,"parameterNumberName":"U-component_of_WINDS"},"data":[0,0,0,0,0,0,0,0,0,0,0,0,0,0,0,0,0,0,0,0,0,0,0,0,0,0,0,0,0,0,0,0,0,0,0,0,0,0,0,0,0,0,0,0,0,0,0,0,0,0,0,0,0,0,0,0,0,0,-2.677,-2.6771,0,-2.6805,-2.6806,-2.6806,-2.6707,-2.6704,-2.6701,-2.6698,-2.6735,-2.6739,-2.6743,0,0,0,0,0,0,0,0,0,0,0,0,0,-2.6618,-2.6621,-2.677,-2.6771,-2.6771,-2.6805,-2.6806,-2.6806,-2.6707,-2.6704,-2.67,-2.6696,-2.6734,-2.6738,-2.6743,0,0,0,0,0,0,0,0,0,0,0,0,0,-2.6672,-2.6622,-2.677,-2.6726,-2.6722,-2.6805,-2.6806,-2.6806,-2.6708,-2.6703,-2.6699,-2.6695,-2.6732,-2.6738,-2.6744,-2.6872,0,0,-2.6761,-2.6764,0,0,0,0,0,0,0,0,-2.6669,-2.6678,-2.6732,-2.6729,-2.6725,-2.6747,-2.6766,-2.6828,-2.6709,-2.6714,-2.6698,-2.6692,-2.6743,-2.6747,-2.6764,-2.6873,-2.6875,-2.6762,-2.6765,-2.6768,-2.6769,0,0,0,0,0,0,0,-2.6665,-2.6676,-2.6784,-2.6733,-2.6729,-2.6704,-2.6707,-2.6777,-2.6754,-2.6713,-2.6706,-2.6711,-2.674,-2.6759,-2.6764,-2.6875,-2.6762,-2.6767,-2.677,-2.6773,-2.7091,-2.7096,0,0,0,0,0,0,-2.6667,-2.6673,-2.6783,-2.6785,-2.6685,-2.6711,-2.6714,-2.6745,-2.6753,-2.6749,-2.6715,-2.6706,-2.6751,-2.6758,-2.6765,-2.6916,-2.6768,-2.6773,-2.6777,-2.7086,-2.7092,-2.7098,0,0,0,0,0,0,-2.6664,-2.6678,-2.6782,-2.6727,-2.6739,-2.6718,-2.6754,-2.6748,-2.6766,-2.6754,-2.675,-2.6739,-2.6748,-2.6757,-2.6846,-2.6915,-2.6776,-2.6781,-2.708,-2.7088,-2.7095,-2.7218,0,0,0,0,0,0,-2.666,-2.6678,-2.6726,-2.6729,-2.6742,-2.6862,-2.6758,-2.6752,-2.6776,-2.6765,-2.6775,-2.6772,-2.6745,-2.6838,-2.6852,-2.6921,-2.6786,-2.7074,-2.7084,-2.7093,-2.7207,-2.7228,-2.7246,0,0,0,0,0,-2.6655,-2.6759,-2.6729,-2.6743,-2.6802,-2.6866,-2.6873,-2.6839,-2.6783,-2.6831,-2.6823,-2.6772,-2.6906,-2.6848,-2.6862,-2.6935,-2.7069,-2.7081,-2.7092,-2.7198,-2.7224,-2.7246,0,0,0,0,0,0,-2.6766,-2.6759,-2.6725,-2.6833,-2.6851,-2.6849,-2.6909,-2.6868,-2.6902,-2.6891,-2.6847,-2.685,-2.6947,-2.6949,-2.6885,-2.7059,-2.6978,-2.6992,-2.7054,-2.7078,-2.7097,-2.7095,-2.679,0,0,0,0,0,-2.6803,-2.6855,-2.6846,-2.6942,-2.6953,-2.693,-2.6957,-2.6929,-2.6945,-2.6953,-2.6951,-2.697,-2.7015,-2.7047,-2.7088,-2.7207,-2.7208,-2.7264,-2.7283,-2.7299,-2.7313,-2.7376,-2.7401,-2.7134,-2.7134,-2.7134,0,0,-2.6879,-2.6882,-2.6918,-2.6965,-2.6975,-2.7031,-2.6937,-2.6999,-2.704,-2.6962,-2.7046,-2.7045,-2.7063,-2.7167,-2.7213,-2.7172,-2.7386,-2.7314,-2.7327,-2.7331,-2.739,-2.7415,-2.7437,-2.7142,-2.7141,-2.7139,0,0,-2.7048,-2.7055,-2.7136,-2.7148,-2.7165,-2.7148,-2.7168,-2.7172,-2.7169,-2.7252,-2.7195,-2.7242,-2.7323,-2.7337,-2.7356,-2.7529,-2.7483,-2.7544,-2.7647,-2.7708,-2.7729,-2.7748,-2.781,-2.7833,-2.7557,-2.7558,-2.7558,0,-2.7141,-2.7222,-2.7183,-2.7249,-2.7272,-2.7203,-2.7285,-2.7298,-2.7328,-2.7345,-2.7299,-2.7398,-2.7405,-2.7512,-2.7554,-2.7571,-2.7592,-2.7543,-2.7729,-2.7747,-2.7764,-2.7823,-2.7846,-2.7565,-2.7564,-2.7563,-2.7562,0,-2.7336,-2.7393,-2.7457,-2.7487,-2.7516,-2.759,-2.7562,-2.7597,-2.7566,-2.7555,-2.7641,-2.7646,-2.7688,-2.7711,-2.7682,-2.7814,-2.7788,-2.7736,-2.7654,-2.7797,-2.7852,-2.7874,-2.7575,-2.7573,-2.757,-2.7569,0,0,-2.7576,-2.7583,-2.7607,-2.7619,-2.7632,-2.7676,-2.7746,-2.7787,-2.7817,-2.784,-2.7898,-2.7967,-2.7919,-2.794,-2.7912,-2.7966,-2.8104,-2.7908,-2.7907,-2.7944,-2.8249,-2.8288,-2.8315,-2.8073,-2.8077,-2.808,-2.8248,0,-2.7742,-2.7863,-2.7829,-2.795,-2.8003,-2.7938,-2.7999,-2.8014,-2.8006,-2.8049,-2.8039,-2.8089,-2.8021,-2.8034,-2.8084,-2.8076,-2.8164,-2.8064,-2.8128,-2.813,-2.8126,-2.8343,-2.8385,-2.8543,-2.8269,-2.8272,-2.8275,0,-2.7952,-2.7982,-2.8109,-2.8113,-2.8133,-2.8189,-2.8223,-2.8265,-2.8281,-2.827,-2.8294,-2.8255,-2.8324,-2.8241,-2.8337,-2.8269,-2.8293,-2.8293,-2.8299,-2.8304,-2.8212,-2.8355,-2.8592,-2.8616,-2.8308,-2.8305,-2.8303,0,-2.8115,-2.8187,-2.8272,-2.8284,-2.8291,-2.8332,-2.8337,-2.8348,-2.8374,-2.8404,-2.842,-2.8458,-2.8479,-2.8509,-2.8482,-2.8424,-2.8582,-2.8496,-2.8576,-2.8577,-2.8612,-2.8611,-2.8857,-2.8628,-2.8627,-2.8627,-2.8626,0,-2.8304,-2.8384,-2.8345,-2.8397,-2.8484,-2.8445,-2.8533,-2.853,-2.8541,-2.8591,-2.8537,-2.8586,-2.8546,-2.8592,-2.8571,-2.8653,-2.8663,-2.8657,-2.8651,-2.8662,-2.8663,-2.8678,-2.8666,-2.8633,-2.8632,-2.863,-2.8629,0,-2.85,-2.8477,-2.8566,-2.8564,-2.8566,-2.8631,-2.863,-2.8678,-2.8665,-2.873,-2.8743,-2.8723,-2.8774,-2.8749,-2.8802,-2.8788,-2.8894,-2.8873,-2.8889,-2.8884,-2.8965,-2.8958,-2.923,-2.9264,-2.9012,-2.9014,-2.9016,0,-2.8623,-2.8683,-2.8688,-2.8718,-2.8726,-2.8775,-2.8801,-2.8765,-2.8794,-2.8816,-2.8862,-2.8908,-2.8943,-2.9027,-2.9017,-2.9058,-2.9037,-2.9129,-2.9043,-2.9052,-2.9039,-2.9036,-2.9041,-2.9147,-2.915,-2.9153,-2.9155,0,-2.8843,-2.8828,-2.8868,-2.8904,-2.8937,-2.8964,-2.8986,-2.9013,-2.8977,-2.9014,-2.9064,-2.9091,-2.9145,-2.9191,-2.9226,-2.9231,-2.9188,-2.9182,-2.9202,-2.9215,-2.9222,-2.922,-2.8937,-2.9176,-2.9174,-2.9172,-2.9171,-2.917,-2.9006,-2.9056,-2.9068,-2.9114,-2.9126,-2.9148,-2.9194,-2.9186,-2.9228,-2.9268,-2.9244,-2.9304,-2.9317,-2.936,-2.937,-2.9417,-2.938,-2.941,-2.9417,-2.9425,-2.9436,-2.9215,-2.9423,-2.9422,-2.9422,-2.9421,-2.9421,0,-2.9223,-2.9227,-2.927,-2.9302,-2.9339,-2.9294,-2.9316,-2.9349,-2.9402,-2.9418,-2.9454,-2.9512,-2.9557,-2.955,-2.9591,-2.9629,-2.961,-2.9641,-2.9638,-2.964,-2.9467,-2.9445,-2.9656,-2.9656,-2.9656,-2.9656,-2.9656,-2.9656,-2.9341,-2.9423,-2.941,-2.9498,-2.9501,-2.9559,-2.9576,-2.9596,-2.9608,-2.9676,-2.9712,-2.9708,-2.9715,-2.9756,-2.9795,-2.9792,-2.9809,-2.9848,-2.9838,-2.9676,-2.9653,-2.963,-2.961,-2.9852,-2.9852,-3.0007,-3.0009,-3.001]},{"header":{"parameterUnit":"m.s-1","parameterCategory":1,"la1":30.2991,"la2":30.254,"lo1":-89.0895,"lo2":-89.0444,"dy":0.0017,"dx":0.0017,"nx":28,"ny":28,"refTime":"2026-02-08T09:00:00:Z","depth":0,"parameterNumber":3,"parameterNumberName":"V-component_of_WINDS"},"data":[0,0,0,0,0,0,0,0,0,0,0,0,0,0,0,0,0,0,0,0,0,0,0,0,0,0,0,0,0,0,0,0,0,0,0,0,0,0,0,0,0,0,0,0,0,0,0,0,0,0,0,0,0,0,0,0,0,0,-2.3326,-2.3327,0,-2.3363,-2.3363,-2.3364,-2.3354,-2.3354,-2.3353,-2.3352,-2.3387,-2.3389,-2.339,0,0,0,0,0,0,0,0,0,0,0,0,0,-2.3245,-2.3246,-2.3326,-2.3327,-2.3327,-2.3363,-2.3363,-2.3364,-2.3354,-2.3353,-2.3353,-2.3352,-2.3387,-2.3389,-2.3391,0,0,0,0,0,0,0,0,0,0,0,0,0,-2.328,-2.3247,-2.3326,-2.3327,-2.3327,-2.3363,-2.3363,-2.3364,-2.3355,-2.3353,-2.3352,-2.3351,-2.3386,-2.3389,-2.3391,-2.3427,0,0,-2.3398,-2.3399,0,0,0,0,0,0,0,0,-2.3278,-2.3283,-2.3326,-2.3327,-2.3327,-2.3353,-2.3347,-2.3385,-2.3355,-2.3344,-2.3352,-2.3351,-2.3377,-2.338,-2.3389,-2.3429,-2.3431,-2.3398,-2.34,-2.3401,-2.3402,0,0,0,0,0,0,0,-2.3276,-2.3282,-2.3341,-2.3327,-2.3328,-2.3324,-2.3328,-2.3355,-2.3366,-2.3345,-2.3344,-2.3349,-2.3377,-2.3387,-2.339,-2.3431,-2.3398,-2.3401,-2.3402,-2.3403,-2.3501,-2.3502,0,0,0,0,0,0,-2.3273,-2.328,-2.3339,-2.3342,-2.33,-2.3326,-2.3331,-2.3346,-2.3366,-2.3368,-2.335,-2.3348,-2.3383,-2.3387,-2.3391,-2.3433,-2.3401,-2.3403,-2.3405,-2.3499,-2.3501,-2.3502,0,0,0,0,0,0,-2.3272,-2.3279,-2.3338,-2.3311,-2.3318,-2.3329,-2.3346,-2.3347,-2.3357,-2.3369,-2.3371,-2.3358,-2.3382,-2.3387,-2.3418,-2.3435,-2.3404,-2.3407,-2.3498,-2.35,-2.3502,-2.352,0,0,0,0,0,0,-2.3269,-2.3278,-2.3293,-2.3311,-2.3319,-2.3366,-2.3347,-2.3349,-2.3361,-2.336,-2.3378,-2.3379,-2.3382,-2.3414,-2.342,-2.3437,-2.3408,-2.3497,-2.3499,-2.3501,-2.3518,-2.3522,-2.3525,0,0,0,0,0,-2.3267,-2.3297,-2.3294,-2.3301,-2.3338,-2.3367,-2.3371,-2.3374,-2.3363,-2.3377,-2.3385,-2.3379,-2.3432,-2.3418,-2.3424,-2.3442,-2.3496,-2.3498,-2.3501,-2.3516,-2.3521,-2.3525,0,0,0,0,0,0,-2.328,-2.3299,-2.3296,-2.3334,-2.3349,-2.3365,-2.3383,-2.338,-2.3398,-2.3396,-2.3398,-2.3402,-2.3433,-2.3441,-2.3424,-2.3477,-2.3462,-2.3466,-2.3471,-2.3476,-2.348,-2.3477,-2.341,0,0,0,0,0,-2.3288,-2.331,-2.3325,-2.3356,-2.3364,-2.3372,-2.3385,-2.3386,-2.3401,-2.3407,-2.3417,-2.3432,-2.3451,-2.3464,-2.3483,-2.3519,-2.3521,-2.3534,-2.3538,-2.3541,-2.3544,-2.3562,-2.3567,-2.3511,-2.3511,-2.3511,0,0,-2.3303,-2.3316,-2.333,-2.3359,-2.3371,-2.3393,-2.3378,-2.3402,-2.3418,-2.3411,-2.344,-2.3448,-2.3464,-2.3496,-2.3511,-2.3504,-2.3561,-2.3544,-2.3547,-2.3548,-2.3565,-2.357,-2.3575,-2.3512,-2.3512,-2.3512,0,0,-2.3342,-2.3355,-2.3381,-2.3393,-2.3411,-2.3417,-2.3423,-2.344,-2.3445,-2.3474,-2.3469,-2.3487,-2.3522,-2.3533,-2.3543,-2.3584,-2.3579,-2.3591,-2.361,-2.3627,-2.3632,-2.3636,-2.3649,-2.3654,-2.3594,-2.3594,-2.3594,0,-2.3358,-2.3392,-2.3395,-2.3419,-2.3432,-2.3427,-2.3453,-2.3464,-2.3487,-2.3495,-2.3487,-2.3529,-2.3539,-2.3574,-2.3584,-2.3593,-2.3599,-2.3588,-2.3631,-2.3635,-2.3639,-2.3651,-2.3657,-2.3595,-2.3595,-2.3595,-2.3595,0,-2.341,-2.3434,-2.3453,-2.3475,-2.349,-2.3515,-2.3521,-2.3535,-2.3534,-2.3539,-2.3568,-2.3581,-2.3602,-2.361,-2.361,-2.3644,-2.3638,-2.3631,-2.3615,-2.3645,-2.3657,-2.3662,-2.3597,-2.3596,-2.3596,-2.3596,0,0,-2.3459,-2.3483,-2.3489,-2.3499,-2.3518,-2.3535,-2.3559,-2.358,-2.3591,-2.3607,-2.3626,-2.3654,-2.3647,-2.3658,-2.3659,-2.3674,-2.3704,-2.3664,-2.3665,-2.367,-2.3741,-2.3745,-2.3751,-2.3701,-2.3702,-2.3703,-2.3739,0,-2.3499,-2.3542,-2.3545,-2.3583,-2.3603,-2.3598,-2.3619,-2.3632,-2.3637,-2.3655,-2.366,-2.368,-2.367,-2.3676,-2.3691,-2.3697,-2.3718,-2.3695,-2.3717,-2.3718,-2.3712,-2.3758,-2.3763,-2.3797,-2.3744,-2.3744,-2.3745,0,-2.3551,-2.3568,-2.3608,-2.3623,-2.3631,-2.365,-2.3668,-2.3685,-2.3699,-2.3702,-2.3714,-2.3713,-2.3735,-2.372,-2.375,-2.3734,-2.3744,-2.3748,-2.3749,-2.3751,-2.3733,-2.3759,-2.3808,-2.3812,-2.3753,-2.3752,-2.3751,0,-2.358,-2.3613,-2.3641,-2.365,-2.3668,-2.3681,-2.3689,-2.3702,-2.3713,-2.3729,-2.3736,-2.3754,-2.3764,-2.3777,-2.378,-2.3768,-2.381,-2.3795,-2.3812,-2.3812,-2.382,-2.3819,-2.387,-2.3828,-2.3828,-2.3828,-2.3828,0,-2.3623,-2.3647,-2.3655,-2.3672,-2.3698,-2.3701,-2.3727,-2.3734,-2.3745,-2.3763,-2.376,-2.3776,-2.3779,-2.3795,-2.3797,-2.3821,-2.3826,-2.3828,-2.3828,-2.3827,-2.3827,-2.3833,-2.383,-2.3829,-2.3829,-2.3829,-2.3828,0,-2.366,-2.3666,-2.3696,-2.3711,-2.3715,-2.3734,-2.3745,-2.3761,-2.3766,-2.3788,-2.3793,-2.38,-2.3819,-2.3823,-2.3846,-2.3847,-2.3875,-2.3874,-2.3871,-2.387,-2.3886,-2.3884,-2.3941,-2.3948,-2.3903,-2.3904,-2.3904,0,-2.3687,-2.3705,-2.3722,-2.3733,-2.3742,-2.3761,-2.3772,-2.3775,-2.3787,-2.3804,-2.3817,-2.3836,-2.3851,-2.3881,-2.3888,-2.3904,-2.3902,-2.3921,-2.3905,-2.3903,-2.3901,-2.3899,-2.39,-2.3924,-2.3924,-2.3925,-2.3925,0,-2.3733,-2.3734,-2.3752,-2.377,-2.3784,-2.3798,-2.3812,-2.3821,-2.3825,-2.3839,-2.3858,-2.387,-2.3893,-2.3911,-2.3927,-2.3934,-2.393,-2.393,-2.3935,-2.3934,-2.3931,-2.3931,-2.3878,-2.3929,-2.3928,-2.3928,-2.3928,-2.3928,-2.3764,-2.378,-2.3793,-2.3812,-2.3823,-2.3835,-2.385,-2.3857,-2.3873,-2.3892,-2.3893,-2.3913,-2.3925,-2.3947,-2.3955,-2.397,-2.3964,-2.3971,-2.3973,-2.3974,-2.3975,-2.393,-2.3974,-2.3974,-2.3973,-2.3973,-2.3973,0,-2.3808,-2.3817,-2.3834,-2.3853,-2.3867,-2.3863,-2.3877,-2.3889,-2.3908,-2.392,-2.3934,-2.3956,-2.3973,-2.3981,-2.3997,-2.4008,-2.4006,-2.4012,-2.4011,-2.4012,-2.398,-2.3974,-2.4013,-2.4013,-2.4013,-2.4013,-2.4013,-2.4013,-2.3833,-2.3859,-2.3862,-2.3892,-2.39,-2.3921,-2.3929,-2.394,-2.3949,-2.3973,-2.3987,-2.3993,-2.4002,-2.4019,-2.4034,-2.4036,-2.4042,-2.4048,-2.4049,-2.4019,-2.4015,-2.4011,-2.4005,-2.405,-2.405,-2.4079,-2.4079,-2.408]}]]